Location: Stockholm
(59.3330°N, 18.0500°E)
Time: 13:11:11
(UTC+01:00)

Envisat - Pass Details

Date: 02 December 2022
Orbit: 763 x 765 km, 98.2° (Epoch: 29 January)

Event Time Altitude Azimuth Distance (km) Brightness Sun altitude
Rises 15:37:45 0° 188° (S) 3,225 7.0 -5.0°
Reaches altitude 10° 15:40:12 10° 196° (SSW) 2,303 6.4 -5.2°
Maximum altitude 15:44:55 38° 264° (W) 1,167 4.6 -5.7°
Drops below altitude 10° 15:49:40 10° 333° (NNW) 2,319 5.4 -6.2°
Sets 15:52:09 0° 341° (NNW) 3,250 6.1 -6.5°
